Year,Month,Day,Hour,Minute,Value (Times are PST for windgust in km/hr)
2014,06,18,00,00,8.10
2014,06,18,00,01,9.60
2014,06,18,00,02,6.40
2014,06,18,00,03,8.10
2014,06,18,00,04,9.60
2014,06,18,00,05,11.30
2014,06,18,00,06,9.60
2014,06,18,00,07,8.10
2014,06,18,00,08,6.40
2014,06,18,00,09,6.40
2014,06,18,00,10,6.40
2014,06,18,00,11,4.80
2014,06,18,00,12,4.80
2014,06,18,00,13,4.80
2014,06,18,00,15,4.80
2014,06,18,00,16,3.20
2014,06,18,00,17,3.20
2014,06,18,00,18,4.80
2014,06,18,00,19,4.80
2014,06,18,00,20,6.40
2014,06,18,00,21,4.80
2014,06,18,00,22,6.40
2014,06,18,00,23,6.40
2014,06,18,00,24,6.40
2014,06,18,00,25,6.40
2014,06,18,00,26,6.40
2014,06,18,00,27,6.40
2014,06,18,00,28,8.10
2014,06,18,00,29,6.40
2014,06,18,00,30,8.10
2014,06,18,00,31,8.10
2014,06,18,00,32,9.60
2014,06,18,00,33,8.10
2014,06,18,00,34,8.10
2014,06,18,00,35,9.60
2014,06,18,00,36,9.60
2014,06,18,00,37,8.10
2014,06,18,00,38,8.10
2014,06,18,00,39,6.40
2014,06,18,00,40,6.40
2014,06,18,00,41,6.40
2014,06,18,00,42,4.80
2014,06,18,00,43,6.40
2014,06,18,00,44,6.40
2014,06,18,00,45,6.40
2014,06,18,00,46,8.10
2014,06,18,00,47,8.10
2014,06,18,00,48,4.80
2014,06,18,00,49,4.80
2014,06,18,00,50,4.80
2014,06,18,00,51,6.40
2014,06,18,00,52,4.80
2014,06,18,00,53,4.80
2014,06,18,00,54,3.20
2014,06,18,00,55,4.80
2014,06,18,00,56,4.80
2014,06,18,00,57,3.20
2014,06,18,00,58,4.80
2014,06,18,00,59,3.20
2014,06,18,01,00,3.20
2014,06,18,01,01,4.80
2014,06,18,01,02,4.80
2014,06,18,01,03,4.80
2014,06,18,01,04,4.80
2014,06,18,01,05,4.80
2014,06,18,01,06,4.80
2014,06,18,01,07,6.40
2014,06,18,01,08,6.40
2014,06,18,01,09,4.80
2014,06,18,01,10,4.80
2014,06,18,01,11,4.80
2014,06,18,01,12,3.20
2014,06,18,01,13,4.80
2014,06,18,01,14,4.80
2014,06,18,01,15,3.20
2014,06,18,01,16,4.80
2014,06,18,01,17,3.20
2014,06,18,01,18,3.20
2014,06,18,01,19,3.20
2014,06,18,01,20,4.80
2014,06,18,01,21,4.80
2014,06,18,01,22,3.20
2014,06,18,01,23,3.20
2014,06,18,01,24,4.80
2014,06,18,01,25,4.80
2014,06,18,01,26,4.80
2014,06,18,01,27,4.80
2014,06,18,01,28,3.20
2014,06,18,01,29,4.80
2014,06,18,01,30,3.20
2014,06,18,01,31,4.80
2014,06,18,01,32,4.80
2014,06,18,01,33,6.40
2014,06,18,01,34,9.60
2014,06,18,01,35,6.40
2014,06,18,01,36,8.10
2014,06,18,01,37,6.40
2014,06,18,01,38,6.40
2014,06,18,01,39,6.40
2014,06,18,01,40,6.40
2014,06,18,01,41,6.40
2014,06,18,01,42,4.80
2014,06,18,01,43,4.80
2014,06,18,01,44,6.40
2014,06,18,01,45,6.40
2014,06,18,01,46,6.40
2014,06,18,01,47,6.40
2014,06,18,01,48,6.40
2014,06,18,01,49,8.10
2014,06,18,01,50,6.40
2014,06,18,01,51,3.20
2014,06,18,01,52,4.80
2014,06,18,01,53,3.20
2014,06,18,01,54,3.20
2014,06,18,01,55,3.20
2014,06,18,01,56,6.40
2014,06,18,01,57,4.80
2014,06,18,01,58,3.20
2014,06,18,01,59,4.80
2014,06,18,02,00,8.10
2014,06,18,02,01,8.10
2014,06,18,02,02,6.40
2014,06,18,02,03,4.80
2014,06,18,02,04,6.40
2014,06,18,02,05,4.80
2014,06,18,02,06,4.80
2014,06,18,02,07,4.80
2014,06,18,02,08,6.40
2014,06,18,02,09,6.40
2014,06,18,02,10,6.40
2014,06,18,02,11,4.80
2014,06,18,02,12,6.40
2014,06,18,02,13,4.80
2014,06,18,02,14,6.40
2014,06,18,02,15,8.10
2014,06,18,02,16,6.40
2014,06,18,02,17,6.40
2014,06,18,02,18,8.10
2014,06,18,02,19,4.80
2014,06,18,02,20,3.20
2014,06,18,02,21,3.20
2014,06,18,02,22,4.80
2014,06,18,02,23,3.20
2014,06,18,02,24,6.40
2014,06,18,02,25,6.40
2014,06,18,02,26,4.80
2014,06,18,02,27,4.80
2014,06,18,02,28,4.80
2014,06,18,02,29,3.20
2014,06,18,02,30,4.80
2014,06,18,02,31,4.80
2014,06,18,02,32,3.20
2014,06,18,02,33,4.80
2014,06,18,02,34,4.80
2014,06,18,02,35,4.80
2014,06,18,02,36,6.40
2014,06,18,02,37,6.40
2014,06,18,02,38,6.40
2014,06,18,02,39,6.40
2014,06,18,02,40,4.80
2014,06,18,02,41,4.80
2014,06,18,02,42,4.80
2014,06,18,02,43,4.80
2014,06,18,02,44,4.80
2014,06,18,02,45,4.80
2014,06,18,02,46,4.80
2014,06,18,02,47,6.40
2014,06,18,02,48,4.80
2014,06,18,02,49,4.80
2014,06,18,02,50,4.80
2014,06,18,02,51,4.80
2014,06,18,02,52,4.80
2014,06,18,02,53,6.40
2014,06,18,02,54,6.40
2014,06,18,02,55,6.40
2014,06,18,02,56,4.80
2014,06,18,02,57,4.80
2014,06,18,02,58,4.80
2014,06,18,02,59,4.80
2014,06,18,03,00,4.80
2014,06,18,03,01,6.40
2014,06,18,03,02,6.40
2014,06,18,03,06,6.40
2014,06,18,03,07,4.80
2014,06,18,03,08,6.40
2014,06,18,03,09,6.40
2014,06,18,03,10,8.10
2014,06,18,03,11,8.10
2014,06,18,03,12,8.10
2014,06,18,03,13,8.10
2014,06,18,03,14,8.10
2014,06,18,03,15,8.10
2014,06,18,03,16,8.10
2014,06,18,03,17,6.40
2014,06,18,03,18,4.80
2014,06,18,03,19,4.80
2014,06,18,03,20,4.80
2014,06,18,03,21,6.40
2014,06,18,03,22,4.80
2014,06,18,03,23,4.80
2014,06,18,03,24,4.80
2014,06,18,03,25,4.80
2014,06,18,03,26,3.20
2014,06,18,03,27,4.80
2014,06,18,03,28,4.80
2014,06,18,03,29,4.80
2014,06,18,03,30,4.80
2014,06,18,03,31,6.40
2014,06,18,03,32,4.80
2014,06,18,03,33,6.40
2014,06,18,03,34,4.80
2014,06,18,03,35,6.40
2014,06,18,03,36,6.40
2014,06,18,03,37,6.40
2014,06,18,03,38,8.10
2014,06,18,03,39,8.10
2014,06,18,03,40,6.40
2014,06,18,03,41,6.40
2014,06,18,03,42,6.40
2014,06,18,03,43,6.40
2014,06,18,03,44,6.40
2014,06,18,03,45,6.40
2014,06,18,03,46,6.40
2014,06,18,03,47,4.80
2014,06,18,03,48,8.10
2014,06,18,03,49,6.40
2014,06,18,03,50,6.40
2014,06,18,03,51,3.20
2014,06,18,03,52,4.80
2014,06,18,03,53,4.80
2014,06,18,03,54,3.20
2014,06,18,03,55,4.80
2014,06,18,03,56,4.80
2014,06,18,03,57,6.40
2014,06,18,03,58,4.80
2014,06,18,03,59,4.80
2014,06,18,04,00,4.80
2014,06,18,04,01,4.80
2014,06,18,04,02,6.40
2014,06,18,04,03,4.80
2014,06,18,04,04,6.40
2014,06,18,04,05,3.20
2014,06,18,04,06,3.20
2014,06,18,04,07,3.20
2014,06,18,04,08,4.80
2014,06,18,04,09,4.80
2014,06,18,04,10,4.80
2014,06,18,04,11,4.80
2014,06,18,04,12,4.80
2014,06,18,04,13,4.80
2014,06,18,04,14,6.40
2014,06,18,04,15,6.40
2014,06,18,04,16,4.80
2014,06,18,04,17,4.80
2014,06,18,04,18,3.20
2014,06,18,04,19,4.80
2014,06,18,04,20,4.80
2014,06,18,04,21,4.80
2014,06,18,04,22,4.80
2014,06,18,04,23,4.80
2014,06,18,04,24,3.20
2014,06,18,04,25,3.20
2014,06,18,04,26,4.80
2014,06,18,04,27,1.60
2014,06,18,04,28,4.80
2014,06,18,04,29,3.20
2014,06,18,04,30,3.20
2014,06,18,04,31,1.60
2014,06,18,04,33,3.20
2014,06,18,04,34,4.80
2014,06,18,04,35,4.80
2014,06,18,04,36,3.20
2014,06,18,04,37,4.80
2014,06,18,04,38,4.80
2014,06,18,04,39,4.80
2014,06,18,04,40,4.80
2014,06,18,04,41,3.20
2014,06,18,04,42,4.80
2014,06,18,04,43,6.40
2014,06,18,04,44,6.40
2014,06,18,04,45,4.80
2014,06,18,04,46,3.20
2014,06,18,04,47,4.80
2014,06,18,04,48,3.20
2014,06,18,04,49,4.80
2014,06,18,04,50,3.20
2014,06,18,04,51,3.20
2014,06,18,04,52,4.80
2014,06,18,04,53,4.80
2014,06,18,04,54,4.80
2014,06,18,04,55,6.40
2014,06,18,04,56,3.20
2014,06,18,04,57,4.80
2014,06,18,04,58,4.80
2014,06,18,04,59,6.40
2014,06,18,05,00,6.40
2014,06,18,05,01,6.40
2014,06,18,05,02,6.40
2014,06,18,05,03,6.40
2014,06,18,05,04,6.40
2014,06,18,05,05,6.40
2014,06,18,05,06,6.40
2014,06,18,05,07,6.40
2014,06,18,05,08,6.40
2014,06,18,05,09,6.40
2014,06,18,05,10,6.40
2014,06,18,05,11,4.80
2014,06,18,05,12,6.40
2014,06,18,05,13,4.80
2014,06,18,05,14,6.40
2014,06,18,05,15,6.40
2014,06,18,05,16,6.40
2014,06,18,05,17,4.80
2014,06,18,05,18,3.20
2014,06,18,05,19,6.40
2014,06,18,05,20,4.80
2014,06,18,05,21,6.40
2014,06,18,05,22,8.10
2014,06,18,05,23,6.40
2014,06,18,05,24,6.40
2014,06,18,05,25,6.40
2014,06,18,05,26,6.40
2014,06,18,05,27,3.20
2014,06,18,05,28,6.40
2014,06,18,05,29,4.80
2014,06,18,05,30,4.80
2014,06,18,05,31,4.80
2014,06,18,05,32,3.20
2014,06,18,05,33,4.80
2014,06,18,05,34,4.80
2014,06,18,05,35,8.10
2014,06,18,05,36,8.10
2014,06,18,05,37,6.40
2014,06,18,05,38,6.40
2014,06,18,05,39,6.40
2014,06,18,05,40,6.40
2014,06,18,05,41,4.80
2014,06,18,05,42,4.80
2014,06,18,05,43,4.80
2014,06,18,05,44,6.40
2014,06,18,05,45,4.80
2014,06,18,05,46,4.80
2014,06,18,05,47,4.80
2014,06,18,05,48,3.20
2014,06,18,05,49,6.40
2014,06,18,05,50,4.80
2014,06,18,05,51,3.20
2014,06,18,05,52,4.80
2014,06,18,05,53,4.80
2014,06,18,05,54,4.80
2014,06,18,05,55,4.80
2014,06,18,05,56,3.20
2014,06,18,05,57,4.80
2014,06,18,05,58,4.80
2014,06,18,05,59,4.80
2014,06,18,06,00,4.80
2014,06,18,06,01,4.80
2014,06,18,06,02,4.80
2014,06,18,06,03,3.20
2014,06,18,06,04,1.60
2014,06,18,06,05,4.80
2014,06,18,06,06,6.40
2014,06,18,06,07,4.80
2014,06,18,06,08,3.20
2014,06,18,06,09,8.10
2014,06,18,06,10,8.10
2014,06,18,06,11,6.40
2014,06,18,06,12,6.40
2014,06,18,06,13,4.80
2014,06,18,06,14,6.40
2014,06,18,06,15,9.60
2014,06,18,06,16,6.40
2014,06,18,06,17,8.10
2014,06,18,06,18,6.40
2014,06,18,06,19,9.60
2014,06,18,06,20,8.10
2014,06,18,06,21,8.10
2014,06,18,06,22,8.10
2014,06,18,06,23,6.40
2014,06,18,06,24,9.60
2014,06,18,06,25,9.60
2014,06,18,06,26,6.40
2014,06,18,06,27,6.40
2014,06,18,06,28,4.80
2014,06,18,06,29,4.80
2014,06,18,06,30,6.40
2014,06,18,06,31,6.40
2014,06,18,06,32,8.10
2014,06,18,06,33,6.40
2014,06,18,06,34,6.40
2014,06,18,06,35,4.80
2014,06,18,06,36,4.80
2014,06,18,06,37,6.40
2014,06,18,06,38,6.40
2014,06,18,06,39,6.40
2014,06,18,06,40,8.10
2014,06,18,06,41,8.10
2014,06,18,06,42,8.10
2014,06,18,06,43,8.10
2014,06,18,06,44,8.10
2014,06,18,06,45,6.40
2014,06,18,06,46,8.10
2014,06,18,06,47,9.60
2014,06,18,06,48,9.60
2014,06,18,06,49,9.60
2014,06,18,06,50,9.60
2014,06,18,06,51,8.10
2014,06,18,06,52,8.10
2014,06,18,06,53,8.10
2014,06,18,06,54,11.30
2014,06,18,06,55,11.30
2014,06,18,06,56,12.90
2014,06,18,06,57,9.60
2014,06,18,06,58,11.30
2014,06,18,06,59,9.60
2014,06,18,07,00,8.10
2014,06,18,07,01,11.30
2014,06,18,07,02,8.10
2014,06,18,07,03,8.10
2014,06,18,07,04,9.60
2014,06,18,07,05,8.10
2014,06,18,07,06,11.30
2014,06,18,07,07,11.30
2014,06,18,07,08,11.30
2014,06,18,07,09,11.30
2014,06,18,07,10,9.60
2014,06,18,07,11,8.10
2014,06,18,07,12,12.90
2014,06,18,07,13,11.30
2014,06,18,07,14,11.30
2014,06,18,07,15,12.90
2014,06,18,07,16,9.60
2014,06,18,07,17,9.60
2014,06,18,07,18,11.30
2014,06,18,07,19,9.60
2014,06,18,07,20,9.60
2014,06,18,07,21,6.40
2014,06,18,07,22,8.10
2014,06,18,07,23,8.10
2014,06,18,07,24,6.40
2014,06,18,07,25,11.30
2014,06,18,07,26,9.60
2014,06,18,07,27,8.10
2014,06,18,07,28,8.10
2014,06,18,07,29,11.30
2014,06,18,07,30,9.60
2014,06,18,07,31,9.60
2014,06,18,07,32,9.60
2014,06,18,07,33,9.60
2014,06,18,07,34,9.60
2014,06,18,07,35,8.10
2014,06,18,07,36,8.10
2014,06,18,07,37,9.60
2014,06,18,07,38,9.60
2014,06,18,07,39,8.10
2014,06,18,07,40,6.40
2014,06,18,07,41,4.80
2014,06,18,07,42,4.80
2014,06,18,07,43,3.20
2014,06,18,07,44,6.40
2014,06,18,07,45,9.60
2014,06,18,07,46,8.10
2014,06,18,07,47,6.40
2014,06,18,07,48,8.10
2014,06,18,07,49,9.60
2014,06,18,07,50,9.60
2014,06,18,07,51,11.30
2014,06,18,07,52,8.10
2014,06,18,07,53,9.60
2014,06,18,07,54,11.30
2014,06,18,07,55,9.60
2014,06,18,07,56,9.60
2014,06,18,07,57,9.60
2014,06,18,07,58,9.60
2014,06,18,07,59,9.60
2014,06,18,08,00,9.60
2014,06,18,08,01,9.60
2014,06,18,08,02,9.60
2014,06,18,08,03,11.30
2014,06,18,08,04,11.30
2014,06,18,08,05,9.60
2014,06,18,08,06,11.30
2014,06,18,08,07,9.60
2014,06,18,08,08,14.50
2014,06,18,08,09,11.30
2014,06,18,08,10,9.60
2014,06,18,08,11,8.10
2014,06,18,08,12,8.10
2014,06,18,08,13,9.60
2014,06,18,08,14,11.30
2014,06,18,08,15,11.30
2014,06,18,08,16,9.60
2014,06,18,08,17,8.10
2014,06,18,08,18,8.10
2014,06,18,08,19,6.40
2014,06,18,08,20,4.80
2014,06,18,08,21,4.80
2014,06,18,08,22,8.10
2014,06,18,08,23,3.20
2014,06,18,08,24,4.80
2014,06,18,08,25,8.10
2014,06,18,08,26,6.40
2014,06,18,08,27,4.80
2014,06,18,08,28,11.30
2014,06,18,08,29,6.40
2014,06,18,08,30,8.10
2014,06,18,08,31,6.40
2014,06,18,08,32,6.40
2014,06,18,08,33,4.80
2014,06,18,08,34,6.40
2014,06,18,08,35,6.40
2014,06,18,08,36,6.40
2014,06,18,08,37,6.40
2014,06,18,08,38,6.40
2014,06,18,08,39,8.10
2014,06,18,08,40,9.60
2014,06,18,08,41,6.40
2014,06,18,08,42,11.30
2014,06,18,08,43,14.50
2014,06,18,08,44,8.10
2014,06,18,08,45,9.60
2014,06,18,08,46,14.50
2014,06,18,08,47,16.10
2014,06,18,08,48,11.30
2014,06,18,08,49,16.10
2014,06,18,08,50,14.50
2014,06,18,08,51,16.10
2014,06,18,08,52,17.70
2014,06,18,08,53,16.10
2014,06,18,08,54,17.70
2014,06,18,08,55,16.10
2014,06,18,08,56,14.50
2014,06,18,08,57,17.70
2014,06,18,08,58,16.10
2014,06,18,08,59,16.10
2014,06,18,09,00,17.70
2014,06,18,09,01,16.10
2014,06,18,09,02,16.10
2014,06,18,09,03,17.70
2014,06,18,09,04,16.10
2014,06,18,09,05,16.10
2014,06,18,09,06,16.10
2014,06,18,09,07,17.70
2014,06,18,09,08,17.70
2014,06,18,09,09,14.50
2014,06,18,09,10,16.10
2014,06,18,09,11,16.10
2014,06,18,09,12,11.30
2014,06,18,09,13,17.70
2014,06,18,09,14,17.70
2014,06,18,09,15,17.70
2014,06,18,09,16,16.10
2014,06,18,09,17,16.10
2014,06,18,09,18,11.30
2014,06,18,09,19,16.10
2014,06,18,09,20,8.10
2014,06,18,09,21,11.30
2014,06,18,09,22,17.70
2014,06,18,09,23,17.70
2014,06,18,09,24,16.10
2014,06,18,09,25,12.90
2014,06,18,09,26,14.50
2014,06,18,09,27,14.50
2014,06,18,09,28,14.50
2014,06,18,09,29,12.90
2014,06,18,09,30,16.10
2014,06,18,09,31,16.10
2014,06,18,09,32,12.90
2014,06,18,09,33,14.50
2014,06,18,09,34,9.60
2014,06,18,09,35,11.30
2014,06,18,09,36,16.10
2014,06,18,09,37,16.10
2014,06,18,09,38,11.30
2014,06,18,09,39,11.30
2014,06,18,09,40,16.10
2014,06,18,09,41,11.30
2014,06,18,09,42,11.30
2014,06,18,09,43,11.30
2014,06,18,09,44,16.10
2014,06,18,09,45,19.30
2014,06,18,09,46,17.70
2014,06,18,09,47,16.10
2014,06,18,09,48,14.50
2014,06,18,09,49,16.10
2014,06,18,09,50,11.30
2014,06,18,09,51,11.30
2014,06,18,09,52,9.60
2014,06,18,09,53,16.10
2014,06,18,09,54,16.10
2014,06,18,09,55,14.50
2014,06,18,09,56,14.50
2014,06,18,09,57,14.50
2014,06,18,09,58,16.10
2014,06,18,09,59,17.70
2014,06,18,10,00,16.10
2014,06,18,10,01,14.50
2014,06,18,10,02,12.90
2014,06,18,10,03,17.70
2014,06,18,10,04,16.10
2014,06,18,10,05,16.10
2014,06,18,10,06,16.10
2014,06,18,10,07,16.10
2014,06,18,10,08,20.90
2014,06,18,10,09,19.30
2014,06,18,10,10,17.70
2014,06,18,10,11,17.70
2014,06,18,10,12,20.90
2014,06,18,10,13,16.10
2014,06,18,10,14,22.50
2014,06,18,10,15,19.30
2014,06,18,10,16,17.70
2014,06,18,10,17,17.70
2014,06,18,10,18,17.70
2014,06,18,10,19,20.90
2014,06,18,10,20,17.70
2014,06,18,10,21,16.10
2014,06,18,10,22,16.10
2014,06,18,10,23,16.10
2014,06,18,10,24,20.90
2014,06,18,10,25,22.50
2014,06,18,10,26,20.90
2014,06,18,10,27,22.50
2014,06,18,10,28,16.10
2014,06,18,10,29,19.30
2014,06,18,10,30,14.50
2014,06,18,10,31,17.70
2014,06,18,10,32,20.90
2014,06,18,10,33,16.10
2014,06,18,10,34,17.70
2014,06,18,10,35,16.10
2014,06,18,10,36,12.90
2014,06,18,10,37,17.70
2014,06,18,10,38,19.30
2014,06,18,10,39,17.70
2014,06,18,10,40,19.30
2014,06,18,10,41,17.70
2014,06,18,10,42,14.50
2014,06,18,10,43,20.90
2014,06,18,10,44,14.50
2014,06,18,10,45,20.90
2014,06,18,10,46,16.10
2014,06,18,10,47,19.30
2014,06,18,10,48,17.70
2014,06,18,10,49,17.70
2014,06,18,10,50,20.90
2014,06,18,10,51,22.50
2014,06,18,10,52,24.20
2014,06,18,10,53,19.30
2014,06,18,10,54,19.30
2014,06,18,10,55,19.30
2014,06,18,10,56,20.90
2014,06,18,10,57,14.50
2014,06,18,10,58,17.70
2014,06,18,10,59,17.70
2014,06,18,11,00,17.70
2014,06,18,11,01,19.30
2014,06,18,11,02,22.50
2014,06,18,11,03,24.20
2014,06,18,11,04,22.50
2014,06,18,11,05,17.70
2014,06,18,11,06,17.70
2014,06,18,11,07,20.90
2014,06,18,11,08,19.30
2014,06,18,11,09,22.50
2014,06,18,11,10,20.90
2014,06,18,11,11,20.90
2014,06,18,11,12,17.70
2014,06,18,11,13,19.30
2014,06,18,11,14,17.70
2014,06,18,11,15,22.50
2014,06,18,11,16,19.30
2014,06,18,11,17,20.90
2014,06,18,11,18,17.70
2014,06,18,11,19,17.70
2014,06,18,11,20,20.90
2014,06,18,11,21,20.90
2014,06,18,11,22,16.10
2014,06,18,11,23,22.50
2014,06,18,11,24,27.40
2014,06,18,11,25,25.70
2014,06,18,11,26,19.30
2014,06,18,11,27,22.50
2014,06,18,11,28,24.20
2014,06,18,11,29,20.90
2014,06,18,11,30,19.30
2014,06,18,11,31,20.90
2014,06,18,11,32,20.90
2014,06,18,11,33,19.30
2014,06,18,11,34,19.30
2014,06,18,11,35,20.90
2014,06,18,11,36,19.30
2014,06,18,11,37,19.30
2014,06,18,11,38,16.10
2014,06,18,11,39,19.30
2014,06,18,11,40,19.30
2014,06,18,11,41,17.70
2014,06,18,11,42,19.30
2014,06,18,11,43,24.20
2014,06,18,11,44,16.10
2014,06,18,11,45,22.50
2014,06,18,11,46,22.50
2014,06,18,11,47,16.10
2014,06,18,11,48,20.90
2014,06,18,11,49,17.70
2014,06,18,11,50,19.30
2014,06,18,11,51,11.30
2014,06,18,11,52,19.30
2014,06,18,11,53,24.20
2014,06,18,11,54,24.20
2014,06,18,11,55,19.30
2014,06,18,11,56,20.90
2014,06,18,11,57,20.90
2014,06,18,11,58,22.50
2014,06,18,11,59,22.50
2014,06,18,12,00,24.20
2014,06,18,12,01,20.90
2014,06,18,12,02,20.90
2014,06,18,12,03,22.50
2014,06,18,12,04,20.90
2014,06,18,12,05,25.70
2014,06,18,12,06,24.20
2014,06,18,12,07,19.30
2014,06,18,12,08,19.30
2014,06,18,12,09,19.30
2014,06,18,12,10,24.20
2014,06,18,12,11,20.90
2014,06,18,12,12,17.70
2014,06,18,12,13,22.50
2014,06,18,12,14,22.50
2014,06,18,12,15,17.70
2014,06,18,12,16,20.90
2014,06,18,12,17,27.40
2014,06,18,12,18,27.40
2014,06,18,12,19,22.50
2014,06,18,12,20,27.40
2014,06,18,12,21,25.70
2014,06,18,12,22,22.50
2014,06,18,12,23,20.90
2014,06,18,12,24,20.90
2014,06,18,12,25,24.20
2014,06,18,12,26,20.90
2014,06,18,12,27,22.50
2014,06,18,12,28,20.90
2014,06,18,12,29,24.20
2014,06,18,12,30,17.70
2014,06,18,12,31,19.30
2014,06,18,12,32,25.70
2014,06,18,12,33,20.90
2014,06,18,12,34,20.90
2014,06,18,12,35,16.10
2014,06,18,12,36,22.50
2014,06,18,12,37,22.50
2014,06,18,12,38,20.90
2014,06,18,12,39,19.30
2014,06,18,12,40,22.50
2014,06,18,12,41,22.50
2014,06,18,12,42,20.90
2014,06,18,12,43,19.30
2014,06,18,12,44,19.30
2014,06,18,12,45,20.90
2014,06,18,12,46,20.90
2014,06,18,12,47,24.20
2014,06,18,12,48,19.30
2014,06,18,12,49,17.70
2014,06,18,12,50,20.90
2014,06,18,12,51,20.90
2014,06,18,12,52,20.90
2014,06,18,12,53,20.90
2014,06,18,12,54,22.50
2014,06,18,12,55,22.50
2014,06,18,12,56,19.30
2014,06,18,12,57,19.30
2014,06,18,12,58,20.90
2014,06,18,12,59,22.50
2014,06,18,13,00,20.90
2014,06,18,13,01,22.50
2014,06,18,13,02,22.50
2014,06,18,13,03,22.50
2014,06,18,13,04,20.90
2014,06,18,13,05,22.50
2014,06,18,13,06,19.30
2014,06,18,13,07,24.20
2014,06,18,13,08,20.90
2014,06,18,13,09,17.70
2014,06,18,13,10,16.10
2014,06,18,13,11,19.30
2014,06,18,13,12,20.90
2014,06,18,13,13,20.90
2014,06,18,13,14,24.20
2014,06,18,13,15,20.90
2014,06,18,13,16,20.90
2014,06,18,13,17,17.70
2014,06,18,13,18,17.70
2014,06,18,13,19,17.70
2014,06,18,13,20,25.70
2014,06,18,13,21,20.90
2014,06,18,13,22,24.20
2014,06,18,13,23,22.50
2014,06,18,13,24,19.30
2014,06,18,13,25,19.30
2014,06,18,13,26,19.30
2014,06,18,13,27,20.90
2014,06,18,13,28,22.50
2014,06,18,13,29,22.50
2014,06,18,13,30,20.90
2014,06,18,13,31,20.90
2014,06,18,13,32,19.30
2014,06,18,13,33,24.20
2014,06,18,13,34,24.20
2014,06,18,13,35,24.20
2014,06,18,13,36,24.20
2014,06,18,13,37,17.70
2014,06,18,13,38,22.50
2014,06,18,13,39,25.70
2014,06,18,13,40,20.90
2014,06,18,13,41,22.50
2014,06,18,13,42,22.50
2014,06,18,13,43,22.50
2014,06,18,13,44,22.50
2014,06,18,13,45,20.90
2014,06,18,13,46,19.30
2014,06,18,13,47,22.50
2014,06,18,13,48,22.50
2014,06,18,13,49,24.20
2014,06,18,13,50,19.30
2014,06,18,13,51,24.20
2014,06,18,13,52,20.90
2014,06,18,13,53,19.30
2014,06,18,13,54,24.20
2014,06,18,13,55,20.90
2014,06,18,13,56,24.20
2014,06,18,13,57,24.20
2014,06,18,13,58,24.20
2014,06,18,13,59,22.50
2014,06,18,14,00,22.50
2014,06,18,14,01,22.50
2014,06,18,14,02,22.50
2014,06,18,14,03,20.90
2014,06,18,14,04,20.90
2014,06,18,14,05,22.50
2014,06,18,14,06,20.90
2014,06,18,14,07,16.10
2014,06,18,14,08,19.30
2014,06,18,14,09,16.10
2014,06,18,14,10,20.90
2014,06,18,14,11,19.30
2014,06,18,14,12,17.70
2014,06,18,14,13,14.50
2014,06,18,14,14,12.90
2014,06,18,14,15,16.10
2014,06,18,14,16,19.30
2014,06,18,14,17,20.90
2014,06,18,14,18,19.30
2014,06,18,14,19,16.10
2014,06,18,14,20,20.90
2014,06,18,14,21,20.90
2014,06,18,14,22,22.50
2014,06,18,14,23,22.50
2014,06,18,14,24,20.90
2014,06,18,14,25,22.50
2014,06,18,14,26,24.20
2014,06,18,14,27,20.90
2014,06,18,14,28,19.30
2014,06,18,14,29,20.90
2014,06,18,14,30,19.30
2014,06,18,14,31,22.50
2014,06,18,14,32,20.90
2014,06,18,14,33,24.20
2014,06,18,14,34,27.40
2014,06,18,14,35,24.20
2014,06,18,14,36,19.30
2014,06,18,14,37,24.20
2014,06,18,14,38,25.70
2014,06,18,14,39,22.50
2014,06,18,14,40,24.20
2014,06,18,14,41,25.70
2014,06,18,14,42,22.50
2014,06,18,14,43,22.50
2014,06,18,14,44,19.30
2014,06,18,14,45,24.20
2014,06,18,14,46,17.70
2014,06,18,14,47,20.90
2014,06,18,14,48,17.70
2014,06,18,14,49,17.70
2014,06,18,14,50,17.70
2014,06,18,14,51,16.10
2014,06,18,14,52,19.30
2014,06,18,14,53,14.50
2014,06,18,14,54,17.70
2014,06,18,14,55,20.90
2014,06,18,14,56,17.70
2014,06,18,14,57,16.10
2014,06,18,14,58,19.30
2014,06,18,14,59,20.90
2014,06,18,15,00,25.70
2014,06,18,15,01,17.70
2014,06,18,15,02,17.70
2014,06,18,15,03,24.20
2014,06,18,15,04,16.10
2014,06,18,15,05,16.10
2014,06,18,15,06,17.70
2014,06,18,15,07,20.90
2014,06,18,15,08,20.90
2014,06,18,15,09,19.30
2014,06,18,15,10,22.50
2014,06,18,15,11,24.20
2014,06,18,15,12,17.70
2014,06,18,15,13,30.60
2014,06,18,15,14,22.50
2014,06,18,15,15,17.70
2014,06,18,15,16,16.10
2014,06,18,15,17,19.30
2014,06,18,15,18,20.90
2014,06,18,15,19,24.20
2014,06,18,15,20,16.10
2014,06,18,15,21,17.70
2014,06,18,15,22,22.50
2014,06,18,15,23,19.30
2014,06,18,15,24,24.20
2014,06,18,15,25,24.20
2014,06,18,15,26,19.30
2014,06,18,15,27,24.20
2014,06,18,15,28,27.40
2014,06,18,15,29,22.50
2014,06,18,15,30,22.50
2014,06,18,15,31,20.90
2014,06,18,15,32,19.30
2014,06,18,15,33,17.70
2014,06,18,15,34,25.70
2014,06,18,15,35,25.70
2014,06,18,15,36,22.50
2014,06,18,15,37,22.50
2014,06,18,15,38,25.70
2014,06,18,15,39,20.90
2014,06,18,15,40,24.20
2014,06,18,15,41,22.50
2014,06,18,15,42,27.40
2014,06,18,15,43,24.20
2014,06,18,15,44,19.30
2014,06,18,15,45,22.50
2014,06,18,15,46,30.60
2014,06,18,15,47,27.40
2014,06,18,15,48,24.20
2014,06,18,15,49,24.20
2014,06,18,15,50,24.20
2014,06,18,15,51,27.40
2014,06,18,15,52,24.20
2014,06,18,15,53,25.70
2014,06,18,15,54,20.90
2014,06,18,15,55,24.20
2014,06,18,15,56,24.20
2014,06,18,15,57,25.70
2014,06,18,15,58,20.90
2014,06,18,15,59,20.90
2014,06,18,16,00,24.20
2014,06,18,16,01,22.50
2014,06,18,16,02,22.50
2014,06,18,16,03,22.50
2014,06,18,16,04,24.20
2014,06,18,16,05,24.20
2014,06,18,16,06,24.20
2014,06,18,16,07,25.70
2014,06,18,16,08,24.20
2014,06,18,16,09,20.90
2014,06,18,16,10,22.50
2014,06,18,16,11,24.20
2014,06,18,16,12,24.20
2014,06,18,16,13,20.90
2014,06,18,16,14,27.40
2014,06,18,16,15,22.50
2014,06,18,16,16,24.20
2014,06,18,16,17,25.70
2014,06,18,16,18,20.90
2014,06,18,16,19,22.50
2014,06,18,16,20,20.90
2014,06,18,16,21,22.50
2014,06,18,16,22,22.50
2014,06,18,16,23,24.20
2014,06,18,16,24,24.20
2014,06,18,16,25,22.50
2014,06,18,16,26,22.50
2014,06,18,16,27,27.40
2014,06,18,16,28,16.10
2014,06,18,16,29,20.90
2014,06,18,16,30,24.20
2014,06,18,16,31,20.90
2014,06,18,16,32,24.20
2014,06,18,16,33,19.30
2014,06,18,16,34,25.70
2014,06,18,16,35,22.50
2014,06,18,16,36,24.20
2014,06,18,16,37,30.60
2014,06,18,16,38,27.40
2014,06,18,16,39,17.70
2014,06,18,16,40,22.50
2014,06,18,16,41,22.50
2014,06,18,16,42,22.50
2014,06,18,16,43,24.20
2014,06,18,16,44,22.50
2014,06,18,16,45,25.70
2014,06,18,16,46,24.20
2014,06,18,16,47,27.40
2014,06,18,16,48,24.20
2014,06,18,16,49,20.90
2014,06,18,16,50,24.20
2014,06,18,16,51,27.40
2014,06,18,16,52,22.50
2014,06,18,16,53,25.70
2014,06,18,16,54,22.50
2014,06,18,16,55,24.20
2014,06,18,16,56,22.50
2014,06,18,16,57,20.90
2014,06,18,16,58,25.70
2014,06,18,16,59,24.20
2014,06,18,17,00,25.70
2014,06,18,17,01,20.90
2014,06,18,17,02,29.00
2014,06,18,17,03,24.20
2014,06,18,17,04,20.90
2014,06,18,17,05,24.20
2014,06,18,17,06,24.20
2014,06,18,17,07,22.50
2014,06,18,17,08,24.20
2014,06,18,17,09,20.90
2014,06,18,17,10,20.90
2014,06,18,17,11,24.20
2014,06,18,17,12,24.20
2014,06,18,17,13,24.20
2014,06,18,17,14,24.20
2014,06,18,17,15,22.50
2014,06,18,17,16,24.20
2014,06,18,17,17,20.90
2014,06,18,17,18,22.50
2014,06,18,17,19,24.20
2014,06,18,17,20,20.90
2014,06,18,17,21,27.40
2014,06,18,17,22,25.70
2014,06,18,17,23,24.20
2014,06,18,17,24,24.20
2014,06,18,17,25,20.90
2014,06,18,17,26,22.50
2014,06,18,17,27,22.50
2014,06,18,17,28,19.30
2014,06,18,17,29,19.30
2014,06,18,17,30,20.90
2014,06,18,17,31,22.50
2014,06,18,17,32,22.50
2014,06,18,17,33,17.70
2014,06,18,17,34,24.20
2014,06,18,17,35,24.20
2014,06,18,17,36,22.50
2014,06,18,17,37,22.50
2014,06,18,17,38,20.90
2014,06,18,17,39,20.90
2014,06,18,17,40,19.30
2014,06,18,17,41,22.50
2014,06,18,17,42,19.30
2014,06,18,17,43,19.30
2014,06,18,17,44,17.70
2014,06,18,17,45,17.70